This is the latest recevied weather packets stored in our database for station/object KO4DYK. If no packets are shown the sender has not sent any weather packets the latest 10 day(s).
| Time | Temp. | Humidity | Pressure | Rain* | Wind** | Luminosity | Snow |
|---|---|---|---|---|---|---|---|
| 1788394297 | 31.67° C | 70% | 1016.3 hPa | 0 mm | - | 6 W/m² | - |
| 1788393993 | 31.67° C | 69% | 1016.5 hPa | 0 mm | - | 9 W/m² | - |
| 1788393691 | 32.22° C | 69% | 1016.4 hPa | 0 mm | - | 12 W/m² | - |
| 1788393390 | 32.78° C | 67% | 1016.3 hPa | 0 mm | - | 16 W/m² | - |
| 1788393087 | 32.78° C | 65% | 1016.6 hPa | 0 mm | - | 19 W/m² | - |
| 1788392785 | 33.33° C | 65% | 1016.6 hPa | 0 mm | - | 23 W/m² | - |
| 1788392484 | 33.89° C | 63% | 1016.5 hPa | 0 mm | - | 26 W/m² | - |
| 1788392180 | 33.89° C | 59% | 1016.5 hPa | 0 mm | - | 29 W/m² | - |
| 1788391874 | 34.44° C | 57% | 1016.6 hPa | 0 mm | - | 32 W/m² | - |
| 1788391573 | 34.44° C | 56% | 1016.6 hPa | 0 mm | - | 35 W/m² | - |
| 1788391267 | 35° C | 55% | 1016.5 hPa | 0 mm | - | 37 W/m² | - |
| 1788390962 | 35° C | 54% | 1016.6 hPa | 0 mm | - | 40 W/m² | - |
| 1788390662 | 35.56° C | 48% | 1016.3 hPa | 0 mm | - | 44 W/m² | - |
| 1788390361 | 35.56° C | 49% | 1016.6 hPa | 0 mm | - | 46 W/m² | - |
| 1788390060 | 36.11° C | 47% | 1016.5 hPa | 0 mm | - | 48 W/m² | - |
| 1788389756 | 36.11° C | 47% | 1016.6 hPa | 0 mm | - | 50 W/m² | - |
| 1788389455 | 36.11° C | 47% | 1016.7 hPa | 0 mm | - | 53 W/m² | - |
| 1788389154 | 36.11° C | 48% | 1016.6 hPa | 0 mm | - | 55 W/m² | - |
| 1788388850 | 36.67° C | 47% | 1016.6 hPa | 0 mm | - | 57 W/m² | - |
| 1788388546 | 36.67° C | 46% | 1016.5 hPa | 0 mm | - | 59 W/m² | - |
| 1788388245 | 37.22° C | 46% | 1016.7 hPa | 0 mm | - | 69 W/m² | - |
| 1788387944 | 37.78° C | 45% | 1016.6 hPa | 0 mm | - | 77 W/m² | - |
| 1788387643 | 37.78° C | 44% | 1016.6 hPa | 0 mm | - | 232 W/m² | - |
| 1788387339 | 37.78° C | 43% | 1016.7 hPa | 0 mm | - | 248 W/m² | - |
| 1788387033 | 38.33° C | 43% | 1016.6 hPa | 0 mm | - | 239 W/m² | - |
* Rain latest hour (hover to see other rain measurements)
** Current wind speed in m/s (hover to see current wind gust speed)